TimeEDT,TemperatureF,Dew PointF,Humidity,Sea Level PressureIn,VisibilityMPH,Wind Direction,Wind SpeedMPH,Gust SpeedMPH,PrecipitationIn,Events,Conditions,WindDirDegrees,DateUTC
12:52 AM,36.0,17.1,46,30.09,10.0,NW,18.4,25.3,N/A,,Mostly Cloudy,320,2013-03-14 04:52:00
1:52 AM,36.0,17.1,46,30.09,10.0,NW,16.1,20.7,N/A,,Mostly Cloudy,310,2013-03-14 05:52:00
2:52 AM,35.1,18.0,50,30.08,10.0,WNW,8.1,21.9,N/A,,Scattered Clouds,300,2013-03-14 06:52:00
3:52 AM,35.1,17.1,48,30.08,10.0,NW,13.8,18.4,N/A,,Scattered Clouds,310,2013-03-14 07:52:00
4:52 AM,34.0,12.9,42,30.08,10.0,NW,17.3,27.6,N/A,,Scattered Clouds,320,2013-03-14 08:52:00
5:52 AM,34.0,12.9,42,30.09,10.0,WNW,12.7,18.4,N/A,,Scattered Clouds,300,2013-03-14 09:52:00
6:52 AM,34.0,12.9,42,30.11,10.0,NW,15.0,23.0,N/A,,Mostly Cloudy,310,2013-03-14 10:52:00
7:52 AM,34.0,14.0,44,30.13,10.0,WNW,15.0,20.7,N/A,,Mostly Cloudy,300,2013-03-14 11:52:00
8:52 AM,36.0,14.0,41,30.14,10.0,WNW,10.4,21.9,N/A,,Scattered Clouds,300,2013-03-14 12:52:00
9:52 AM,37.4,12.2,36,30.15,10.0,NW,16.1,29.9,N/A,,Scattered Clouds,320,2013-03-14 13:52:00
10:52 AM,39.0,14.0,36,30.15,10.0,WNW,21.9,28.8,N/A,,Scattered Clouds,290,2013-03-14 14:52:00
11:52 AM,41.0,14.0,33,30.13,10.0,NNW,19.6,31.1,N/A,,Scattered Clouds,330,2013-03-14 15:52:00
12:52 PM,42.1,15.1,34,30.11,10.0,West,20.7,28.8,N/A,,Scattered Clouds,270,2013-03-14 16:52:00
1:52 PM,44.1,14.0,30,30.09,10.0,West,21.9,28.8,N/A,,Partly Cloudy,280,2013-03-14 17:52:00
2:52 PM,45.0,12.9,27,30.05,10.0,WNW,24.2,39.1,N/A,,Partly Cloudy,290,2013-03-14 18:52:00
3:52 PM,46.9,12.9,25,30.04,10.0,WNW,17.3,28.8,N/A,,Clear,290,2013-03-14 19:52:00
4:52 PM,46.9,12.0,24,30.04,10.0,NW,23.0,33.4,N/A,,Clear,320,2013-03-14 20:52:00
5:52 PM,46.0,10.0,23,30.05,10.0,NW,23.0,33.4,N/A,,Partly Cloudy,310,2013-03-14 21:52:00
6:52 PM,44.1,12.0,27,30.06,10.0,NW,16.1,26.5,N/A,,Clear,320,2013-03-14 22:52:00
7:52 PM,43.0,12.9,30,30.08,10.0,WNW,16.1,25.3,N/A,,Clear,300,2013-03-14 23:52:00
8:52 PM,42.1,12.9,31,30.08,10.0,NW,11.5,-,N/A,,Clear,310,2013-03-15 00:52:00
9:52 PM,41.0,12.9,32,30.09,10.0,West,3.5,-,N/A,,Clear,260,2013-03-15 01:52:00
10:52 PM,39.9,15.1,36,30.10,10.0,West,8.1,-,N/A,,Clear,270,2013-03-15 02:52:00
11:52 PM,39.0,14.0,36,30.11,10.0,Calm,Calm,-,N/A,,Clear,0,2013-03-15 03:52:00